timestamp,surface_pressure_avg,surface_temp_avg,battery_voltage,lat,long
2020-11-22 00:09:01+00:00,240.6781,6.6,12.73,47.84626,-54.09684
2020-11-22 00:19:01+00:00,241.1797,6.6,12.73,47.84626,-54.09684
2020-11-22 00:29:01+00:00,240.9198,6.59,12.73,47.84626,-54.09684
2020-11-22 00:39:01+00:00,239.0047,6.56,12.73,47.84626,-54.09684
2020-11-22 00:49:01+00:00,238.6564,6.54,12.73,47.84626,-54.09684
2020-11-22 00:59:01+00:00,243.3981,6.59,12.73,47.84626,-54.09684
2020-11-22 01:09:01+00:00,242.1731,6.6,12.73,47.84626,-54.09684
2020-11-22 01:19:01+00:00,238.0114,6.6,12.73,47.84626,-54.09684
2020-11-22 01:29:01+00:00,239.3114,6.6,12.73,47.84626,-54.09684
2020-11-22 01:39:01+00:00,245.3248,6.6,12.73,47.84626,-54.09684
2020-11-22 01:49:01+00:00,249.0314,6.65,12.73,47.84626,-54.09684
2020-11-22 01:59:01+00:00,248.3015,6.69,12.73,47.84626,-54.09684
2020-11-22 02:09:01+00:00,254.3331,6.7,12.73,47.84626,-54.09684
2020-11-22 02:19:01+00:00,265.4297,6.7,12.65,47.84626,-54.09684
2020-11-22 02:29:01+00:00,267.6214,6.7,12.65,47.84626,-54.09684
2020-11-22 02:39:01+00:00,266.6031,6.69,12.65,47.84626,-54.09684
2020-11-22 02:49:01+00:00,275.4847,6.69,12.65,47.84626,-54.09684
2020-11-22 02:59:01+00:00,280.9913,6.79,12.65,47.84626,-54.09684
2020-11-22 03:09:01+00:00,277.933,6.87,12.65,47.84626,-54.09684
2020-11-22 03:19:01+00:00,280.1981,6.8,12.65,47.84626,-54.09684
2020-11-22 03:29:01+00:00,290.4614,6.8,12.65,47.84626,-54.09684
2020-11-22 03:39:01+00:00,293.5997,6.84,12.65,47.84626,-54.09684
2020-11-22 03:49:01+00:00,292.3864,6.88,12.65,47.84626,-54.09684
2020-11-22 03:59:01+00:00,294.863,6.9,12.65,47.84626,-54.09684
2020-11-22 04:09:01+00:00,302.0146,6.93,12.65,47.84626,-54.09684
2020-11-22 04:19:01+00:00,303.3547,6.98,12.65,47.84626,-54.09684
2020-11-22 04:29:01+00:00,300.598,6.99,12.65,47.84626,-54.09684
2020-11-22 04:39:01+00:00,301.2363,6.99,12.65,47.84626,-54.09684
2020-11-22 04:49:01+00:00,302.4381,6.93,12.65,47.84626,-54.09684
2020-11-22 04:59:01+00:00,302.1513,6.9,12.65,47.84626,-54.09684
2020-11-22 05:09:01+00:00,305.838,6.9,12.65,47.84626,-54.09684
2020-11-22 05:19:01+00:00,309.1097,6.9,12.57,47.84626,-54.09684
2020-11-22 05:29:01+00:00,306.33299999999997,6.9,12.57,47.84626,-54.09684
2020-11-22 05:39:01+00:00,303.0547,6.9,12.57,47.84626,-54.09684
2020-11-22 05:49:01+00:00,306.3781,6.91,12.57,47.84626,-54.09684
2020-11-22 05:59:01+00:00,306.7614,6.94,12.57,47.84626,-54.09684
2020-11-22 06:09:01+00:00,308.8613,6.9,12.57,47.84626,-54.09684
2020-11-22 06:19:01+00:00,311.783,6.9,12.57,47.84626,-54.09684
2020-11-22 06:29:01+00:00,314.723,6.8,12.57,47.84626,-54.09684
2020-11-22 06:39:01+00:00,312.2429,6.7,12.57,47.84626,-54.09684
2020-11-22 06:49:01+00:00,312.5396,6.67,12.57,47.84626,-54.09684
2020-11-22 06:59:01+00:00,312.013,6.62,12.57,47.84626,-54.09684
2020-11-22 07:09:01+00:00,306.7513,6.6,12.57,47.84626,-54.09684
2020-11-22 07:19:01+00:00,301.6096,6.6,12.57,47.84626,-54.09684
2020-11-22 07:29:01+00:00,298.2513,6.63,12.57,47.84626,-54.09684
2020-11-22 07:39:01+00:00,291.7413,6.7,12.57,47.84626,-54.09684
2020-11-22 07:49:01+00:00,282.9163,6.8,12.57,47.84626,-54.09684
2020-11-22 07:59:01+00:00,277.1664,6.8,12.57,47.84626,-54.09684
2020-11-22 08:09:01+00:00,274.3298,6.8,12.57,47.84626,-54.09684
2020-11-22 08:19:01+00:00,269.1881,6.8,12.49,47.84626,-54.09684
2020-11-22 08:29:01+00:00,264.5197,6.8,12.49,47.84626,-54.09684
2020-11-22 08:39:01+00:00,261.9481,6.8,12.49,47.84626,-54.09684
2020-11-22 08:49:01+00:00,256.8131,6.7,12.49,47.84626,-54.09684
2020-11-22 08:59:01+00:00,247.6331,6.4,12.49,47.84626,-54.09684
2020-11-22 09:09:01+00:00,244.8248,6.27,12.49,47.84626,-54.09684
2020-11-22 09:19:01+00:00,243.9731,6.26,12.49,47.84626,-54.09684
2020-11-22 09:29:01+00:00,238.9498,6.2,12.49,47.84626,-54.09684
2020-11-22 09:39:01+00:00,232.2714,6.19,12.49,47.84626,-54.09684
2020-11-22 09:49:01+00:00,234.5147,6.2,12.49,47.84626,-54.09684
2020-11-22 09:59:01+00:00,237.9181,6.25,12.49,47.84626,-54.09684
2020-11-22 10:09:01+00:00,235.6447,6.3,12.49,47.84626,-54.09684
2020-11-22 10:19:01+00:00,233.1731,6.3,12.49,47.84626,-54.09684
2020-11-22 10:29:01+00:00,236.9231,6.3,12.49,47.84626,-54.09684
2020-11-22 10:39:01+00:00,237.9781,6.3,12.49,47.84626,-54.09684
2020-11-22 10:49:01+00:00,235.6331,6.3,12.49,47.84626,-54.09684
2020-11-22 10:59:01+00:00,234.4664,6.3,12.49,47.84626,-54.09684
2020-11-22 11:09:01+00:00,237.1848,6.3,12.49,47.84626,-54.09684
2020-11-22 11:19:01+00:00,235.6431,6.3,12.57,47.84626,-54.09684
2020-11-22 11:29:01+00:00,235.0214,6.3,12.57,47.84626,-54.09684
2020-11-22 11:39:01+00:00,239.0832,6.43,12.57,47.84626,-54.09684
2020-11-22 11:49:01+00:00,244.9131,6.56,12.57,47.84626,-54.09684
2020-11-22 11:59:01+00:00,244.5814,6.55,12.57,47.84626,-54.09684
2020-11-22 12:09:01+00:00,243.9764,6.58,12.57,47.84626,-54.09684
2020-11-22 12:19:01+00:00,248.8864,6.04,13.44,47.84626,-54.09684
2020-11-22 12:29:01+00:00,252.5531,5.9,13.44,47.84626,-54.09684
2020-11-22 12:39:01+00:00,249.8414,6.23,13.44,47.84626,-54.09684
2020-11-22 12:49:01+00:00,250.1497,6.5,13.44,47.84626,-54.09684
2020-11-22 12:59:01+00:00,252.9214,6.67,13.44,47.84626,-54.09684
2020-11-22 13:09:01+00:00,255.0248,6.7,13.44,47.84626,-54.09684
2020-11-22 13:19:01+00:00,254.5781,6.77,14.4,47.84626,-54.09684
2020-11-22 13:29:01+00:00,260.5681,6.8,14.4,47.84626,-54.09684
2020-11-22 13:39:01+00:00,265.3647,6.8,14.4,47.84626,-54.09684
2020-11-22 13:49:01+00:00,266.7581,6.8,14.4,47.84626,-54.09684
2020-11-22 13:59:01+00:00,268.1364,6.8,14.4,47.84626,-54.09684
2020-11-22 14:09:01+00:00,273.7197,6.8,14.4,47.84626,-54.09684
2020-11-22 14:19:01+00:00,279.0197,6.86,13.29,47.84626,-54.09684
2020-11-22 14:29:01+00:00,281.8231,6.86,13.29,47.84626,-54.09684
2020-11-22 14:39:01+00:00,285.4946,6.9,13.29,47.84626,-54.09684
2020-11-22 14:49:01+00:00,292.3947,6.9,13.29,47.84626,-54.09684
2020-11-22 14:59:01+00:00,297.0097,6.95,13.29,47.84626,-54.09684
2020-11-22 15:09:01+00:00,299.5564,6.97,13.29,47.84626,-54.09684
2020-11-22 15:19:01+00:00,305.5596,6.9,14.4,47.84626,-54.09684
2020-11-22 15:29:01+00:00,311.5113,6.96,14.4,47.84626,-54.09684
2020-11-22 15:39:01+00:00,311.9913,6.9,14.4,47.84626,-54.09684
2020-11-22 15:49:01+00:00,315.413,6.86,14.4,47.84626,-54.09684
2020-11-22 15:59:01+00:00,323.3497,6.83,14.4,47.84626,-54.09684
2020-11-22 16:09:01+00:00,326.7764,6.9,14.4,47.84626,-54.09684
2020-11-22 16:19:01+00:00,324.4696,6.8,14.48,47.84626,-54.09684
2020-11-22 16:29:01+00:00,326.0397,6.8,14.48,47.84626,-54.09684
2020-11-22 16:39:01+00:00,333.1213,6.9,14.48,47.84626,-54.09684
2020-11-22 16:49:01+00:00,334.9529,6.9,14.48,47.84626,-54.09684
2020-11-22 16:59:01+00:00,336.8446,6.81,14.48,47.84626,-54.09684
2020-11-22 17:09:01+00:00,341.6764,6.8,14.48,47.84626,-54.09684
2020-11-22 17:19:01+00:00,344.0847,6.8,14.64,47.84626,-54.09684
2020-11-22 17:29:01+00:00,343.8696,6.8,14.64,47.84626,-54.09684
2020-11-22 17:39:01+00:00,345.7346,6.8,14.64,47.84626,-54.09684
2020-11-22 17:49:01+00:00,349.6912,6.85,14.64,47.84626,-54.09684
2020-11-22 17:59:01+00:00,346.6429,6.88,14.64,47.84626,-54.09684
2020-11-22 18:09:01+00:00,344.3979,6.89,14.64,47.84626,-54.09684
2020-11-22 18:19:01+00:00,345.2896,6.89,14.48,47.84626,-54.09684
2020-11-22 18:29:01+00:00,345.3546,6.89,14.48,47.84626,-54.09684
2020-11-22 18:39:01+00:00,342.3279,6.84,14.48,47.84626,-54.09684
2020-11-22 18:49:01+00:00,342.6313,6.81,14.48,47.84626,-54.09684
2020-11-22 18:59:01+00:00,343.048,6.8,14.48,47.84626,-54.09684
2020-11-22 19:09:01+00:00,336.61800000000005,6.8,14.48,47.84626,-54.09684
2020-11-22 19:19:01+00:00,334.5963,6.8,14.0,47.84626,-54.09684
2020-11-22 19:29:01+00:00,332.2081,6.73,14.0,47.84626,-54.09684
2020-11-22 19:39:01+00:00,326.9047,6.71,14.0,47.84626,-54.09684
2020-11-22 19:49:01+00:00,318.598,6.7,14.0,47.84626,-54.09684
2020-11-22 19:59:01+00:00,316.2047,6.7,14.0,47.84626,-54.09684
2020-11-22 20:09:01+00:00,313.383,6.7,14.0,47.84626,-54.09684
2020-11-22 20:19:01+00:00,301.5013,6.7,13.44,47.84626,-54.09684
2020-11-22 20:29:01+00:00,292.828,6.7,13.44,47.84626,-54.09684
2020-11-22 20:39:01+00:00,290.048,6.7,13.44,47.84626,-54.09684
2020-11-22 20:49:01+00:00,283.968,6.7,13.44,47.84626,-54.09684
2020-11-22 20:59:01+00:00,272.673,6.7,13.44,47.84626,-54.09684
2020-11-22 21:09:01+00:00,268.3414,6.69,13.44,47.84626,-54.09684
2020-11-22 21:19:01+00:00,266.4714,6.69,13.05,47.84626,-54.09684
2020-11-22 21:29:01+00:00,258.4981,6.65,13.05,47.84626,-54.09684
2020-11-22 21:39:01+00:00,250.1764,6.6,13.05,47.84626,-54.09684
2020-11-22 21:49:01+00:00,251.1014,6.6,13.05,47.84626,-54.09684
2020-11-22 21:59:01+00:00,253.4447,6.66,13.05,47.84626,-54.09684
2020-11-22 22:09:01+00:00,249.5898,6.56,13.05,47.84626,-54.09684
2020-11-22 22:19:01+00:00,243.4281,6.2,12.81,47.84626,-54.09684
2020-11-22 22:29:01+00:00,238.2581,6.1,12.81,47.84626,-54.09684
2020-11-22 22:39:01+00:00,234.1165,6.0,12.81,47.84626,-54.09684
2020-11-22 22:49:01+00:00,235.3914,6.23,12.81,47.84626,-54.09684
2020-11-22 22:59:01+00:00,233.873,6.67,12.81,47.84626,-54.09684
2020-11-22 23:09:01+00:00,230.6381,6.6,12.81,47.84626,-54.09684
2020-11-22 23:19:01+00:00,230.4448,6.6,12.65,47.84626,-54.09684
2020-11-22 23:29:01+00:00,232.4864,6.56,12.65,47.84626,-54.09684
2020-11-22 23:39:01+00:00,234.4131,6.59,12.65,47.84626,-54.09684
2020-11-22 23:49:01+00:00,237.6531,6.7,12.65,47.84626,-54.09684
2020-11-22 23:59:01+00:00,237.0531,6.8,12.65,47.84626,-54.09684
